QPF
0.08 0.11 0.13 0.15 0.14 0.11 0.13 0.15 0.15 0.13 0.13 0.12 0.13 0.15 0.15 0.10 0.07 0.06 0.04 0.04 0.03 0.01 0.01 0.01 0.01 0.01 0.01 0.01 0.01 0.01 0.01 0.01 0.02 0.02 0.03 0.03 0.04 0.04
0.03 0.07 0.12 0.14 0.15 0.13 0.13 0.15 0.15 0.15 0.13 0.13 0.12 0.12 0.14 0.14 0.10 0.06 0.04 0.05 0.03 0.02 0.01 0.01 0.01 0.01 0.00 0.01 0.01 0.01 0.01 0.01 0.01 0.01 0.01 0.02 0.02 0.04
0.02 0.02 0.06 0.10 0.13 0.13 0.13 0.14 0.15 0.17 0.16 0.16 0.17 0.18 0.19 0.17 0.15 0.10 0.05 0.04 0.03 0.02 0.01 0.01 0.00 0.00 0.01 0.01 0.01 0.01 0.01 0.01 0.01 0.01 0.02 0.02 0.01 0.02
0.01 0.01 0.02 0.05 0.07 0.10 0.11 0.15 0.14 0.15 0.17 0.20 0.21 0.20 0.21 0.21 0.19 0.15 0.08 0.05 0.04 0.03 0.01 0.00 0.00 0.01 0.01 0.01 0.01 0.01 0.01 0.01 0.01 0.01 0.01 0.02 0.02 0.02
0.02 0.01 0.01 0.02 0.04 0.07 0.08 0.12 0.16 0.14 0.17 0.19 0.22 0.23 0.23 0.24 0.22 0.16 0.11 0.07 0.04 0.03 0.02 0.01 0.00 0.01 0.01 0.02 0.01 0.01 0.01 0.01 0.00 0.00 0.01 0.01 0.02 0.03
0.05 0.03 0.02 0.02 0.02 0.03 0.06 0.08 0.14 0.15 0.17 0.19 0.23 0.24 0.22 0.23 0.22 0.15 0.10 0.08 0.05 0.03 0.02 0.01 0.00 0.00 0.01 0.01 0.01 0.01 0.01 0.01 0.01 0.01 0.01 0.01 0.01 0.01
0.06 0.04 0.03 0.02 0.02 0.02 0.03 0.05 0.10 0.13 0.14 0.16 0.23 0.27 0.21 0.19 0.19 0.15 0.11 0.08 0.06 0.03 0.02 0.01 0.00 0.00 0.00 0.01 0.01 0.01 0.01 0.01 0.01 0.01 0.01 0.01 0.01 0.01
0.06 0.05 0.03 0.03 0.02 0.03 0.04 0.05 0.07 0.11 0.11 0.11 0.18 0.28 0.22 0.16 0.16 0.17 0.14 0.10 0.06 0.04 0.02 0.01 0.00 0.00 0.00 0.00 0.01 0.01 0.01 0.01 0.00 0.00 0.01 0.01 0.01 0.01
0.07 0.07 0.06 0.03 0.02 0.02 0.03 0.04 0.07 0.09 0.10 0.09 0.13 0.24 0.27 0.18 0.15 0.14 0.13 0.10 0.06 0.06 0.05 0.02 0.01 0.00 0.00 0.00 0.00 0.01 0.01 0.01 0.01 0.00 0.01 0.01 0.01 0.01
0.06 0.07 0.07 0.06 0.04 0.02 0.02 0.03 0.04 0.07 0.09 0.09 0.09 0.16 0.25 0.24 0.16 0.15 0.14 0.13 0.10 0.08 0.08 0.06 0.02 0.01 0.00 0.00 0.00 0.01 0.01 0.01 0.01 0.01 0.01 0.01 0.01 0.01
0.04 0.05 0.05 0.05 0.04 0.04 0.03 0.02 0.02 0.04 0.07 0.10 0.11 0.15 0.19 0.27 0.22 0.15 0.15 0.15 0.11 0.08 0.06 0.06 0.04 0.02 0.00 0.00 0.00 0.01 0.01 0.01 0.01 0.01 0.01 0.01 0.01 0.02
0.02 0.04 0.04 0.04 0.04 0.04 0.03 0.03 0.02 0.02 0.03 0.07 0.09 0.13 0.17 0.21 0.25 0.18 0.14 0.13 0.12 0.09 0.05 0.03 0.03 0.02 0.01 0.01 0.00 0.00 0.01 0.01 0.01 0.01 0.01 0.01 0.01 0.01
0.02 0.04 0.04 0.03 0.03 0.03 0.03 0.03 0.02 0.01 0.02 0.03 0.07 0.08 0.13 0.17 0.20 0.20 0.16 0.12 0.12 0.10 0.07 0.05 0.03 0.02 0.01 0.01 0.01 0.00 0.00 0.00 0.00 0.01 0.01 0.01 0.01 0.01
0.02 0.03 0.04 0.04 0.03 0.03 0.02 0.03 0.02 0.01 0.01 0.02 0.04 0.06 0.08 0.12 0.14 0.16 0.17 0.15 0.11 0.12 0.12 0.08 0.04 0.02 0.01 0.00 0.00 0.00 0.00 0.00 0.00 0.00 0.01 0.02 0.03 0.03
0.03 0.03 0.04 0.03 0.02 0.02 0.02 0.02 0.03 0.02 0.01 0.02 0.02 0.03 0.05 0.07 0.10 0.12 0.16 0.16 0.14 0.13 0.13 0.11 0.06 0.04 0.02 0.01 0.00 0.00 0.00 0.00 0.00 0.00 0.00 0.01 0.02 0.02
0.02 0.02 0.03 0.03 0.02 0.02 0.01 0.01 0.02 0.02 0.01 0.01 0.02 0.03 0.04 0.06 0.08 0.09 0.12 0.16 0.15 0.12 0.13 0.13 0.08 0.06 0.04 0.02 0.01 0.01 0.01 0.00 0.00 0.00 0.00 0.00 0.01 0.01
0.01 0.02 0.02 0.03 0.02 0.01 0.01 0.01 0.01 0.02 0.02 0.01 0.01 0.03 0.04 0.04 0.05 0.07 0.09 0.14 0.14 0.10 0.08 0.11 0.11 0.08 0.06 0.04 0.02 0.01 0.01 0.01 0.01 0.01 0.00 0.00 0.00 0.00
0.01 0.01 0.02 0.02 0.02 0.01 0.01 0.01 0.01 0.01 0.01 0.01 0.01 0.02 0.04 0.03 0.04 0.05 0.06 0.09 0.12 0.11 0.07 0.08 0.10 0.11 0.10 0.07 0.04 0.02 0.02 0.01 0.01 0.01 0.01 0.00 0.00 0.00
0.01 0.01 0.02 0.02 0.02 0.02 0.01 0.01 0.01 0.01 0.02 0.02 0.02 0.02 0.03 0.04 0.04 0.05 0.05 0.06 0.09 0.10 0.09 0.07 0.07 0.08 0.09 0.07 0.04 0.02 0.02 0.02 0.01 0.01 0.01 0.00 0.00 0.00
0.01 0.01 0.01 0.02 0.02 0.02 0.02 0.01 0.01 0.01 0.02 0.02 0.02 0.03 0.03 0.03 0.04 0.04 0.05 0.05 0.07 0.08 0.09 0.08 0.06 0.05 0.05 0.05 0.04 0.02 0.02 0.02 0.02 0.01 0.01 0.00 0.00 0.00
0.02 0.02 0.02 0.02 0.02 0.02 0.02 0.01 0.01 0.01 0.01 0.02 0.03 0.03 0.04 0.04 0.04 0.05 0.06 0.07 0.07 0.07 0.08 0.07 0.05 0.06 0.05 0.05 0.04 0.04 0.03 0.03 0.02 0.02 0.01 0.01 0.00 0.00
0.02 0.02 0.02 0.02 0.02 0.02 0.02 0.02 0.02 0.02 0.02 0.02 0.03 0.03 0.03 0.04 0.04 0.05 0.08 0.08 0.07 0.07 0.09 0.10 0.09 0.08 0.07 0.05 0.04 0.03 0.03 0.03 0.03 0.03 0.02 0.01 0.01 0.00
0.03 0.03 0.03 0.03 0.02 0.02 0.02 0.02 0.02 0.02 0.03 0.04 0.05 0.04 0.03 0.04 0.05 0.06 0.08 0.09 0.09 0.10 0.11 0.12 0.11 0.10 0.07 0.05 0.04 0.04 0.04 0.04 0.03 0.03 0.02 0.01 0.01 0.00
MSLP
1010.14 1010.30 1010.44 1010.53 1010.56 1010.52 1010.39 1010.20 1009.96 1009.70 1009.44 1009.22 1009.05 1008.96 1008.94 1009.01 1009.16 1009.39 1009.70 1010.07 1010.50 1010.97 1011.48 1012.01 1012.52 1013.02 1013.48 1013.90 1014.28 1014.62 1014.94 1015.24 1015.54 1015.82 1016.10 1016.35 1016.57 1016.75
1009.87 1010.07 1010.25 1010.39 1010.46 1010.47 1010.41 1010.29 1010.13 1009.95 1009.76 1009.59 1009.46 1009.37 1009.35 1009.38 1009.49 1009.66 1009.90 1010.21 1010.59 1011.03 1011.50 1012.00 1012.50 1012.98 1013.43 1013.83 1014.18 1014.49 1014.76 1015.02 1015.26 1015.50 1015.73 1015.94 1016.13 1016.27
1009.53 1009.76 1009.97 1010.14 1010.27 1010.34 1010.36 1010.33 1010.27 1010.18 1010.09 1010.01 1009.94 1009.89 1009.88 1009.91 1009.98 1010.10 1010.29 1010.54 1010.87 1011.25 1011.69 1012.16 1012.63 1013.08 1013.50 1013.87 1014.18 1014.44 1014.66 1014.85 1015.03 1015.21 1015.38 1015.54 1015.69 1015.80
1009.12 1009.37 1009.60 1009.81 1009.98 1010.12 1010.22 1010.29 1010.33 1010.35 1010.37 1010.38 1010.39 1010.40 1010.43 1010.46 1010.52 1010.61 1010.76 1010.97 1011.24 1011.58 1011.98 1012.41 1012.85 1013.27 1013.66 1013.98 1014.24 1014.44 1014.59 1014.71 1014.82 1014.92 1015.03 1015.13 1015.23 1015.32
1008.65 1008.90 1009.15 1009.39 1009.61 1009.80 1009.97 1010.12 1010.26 1010.39 1010.51 1010.62 1010.72 1010.80 1010.87 1010.93 1010.99 1011.07 1011.20 1011.37 1011.62 1011.93 1012.29 1012.70 1013.11 1013.50 1013.85 1014.12 1014.33 1014.46 1014.54 1014.58 1014.61 1014.63 1014.67 1014.72 1014.77 1014.83
1008.14 1008.39 1008.65 1008.91 1009.15 1009.39 1009.61 1009.83 1010.05 1010.26 1010.47 1010.66 1010.84 1010.98 1011.10 1011.19 1011.27 1011.36 1011.48 1011.65 1011.89 1012.18 1012.54 1012.93 1013.32 1013.70 1014.02 1014.26 1014.42 1014.49 1014.50 1014.47 1014.42 1014.37 1014.33 1014.33 1014.35 1014.39
1007.59 1007.85 1008.12 1008.38 1008.65 1008.90 1009.16 1009.42 1009.69 1009.96 1010.23 1010.48 1010.71 1010.90 1011.06 1011.19 1011.30 1011.41 1011.54 1011.73 1011.97 1012.28 1012.64 1013.04 1013.44 1013.81 1014.12 1014.35 1014.48 1014.52 1014.48 1014.39 1014.27 1014.16 1014.08 1014.03 1014.02 1014.05
1007.04 1007.30 1007.58 1007.85 1008.12 1008.39 1008.66 1008.93 1009.22 1009.52 1009.81 1010.09 1010.35 1010.57 1010.76 1010.91 1011.05 1011.19 1011.35 1011.56 1011.83 1012.17 1012.56 1012.99 1013.41 1013.81 1014.14 1014.37 1014.50 1014.53 1014.47 1014.36 1014.21 1014.07 1013.95 1013.88 1013.86 1013.88
1006.50 1006.78 1007.06 1007.33 1007.60 1007.87 1008.14 1008.41 1008.69 1008.99 1009.28 1009.56 1009.82 1010.05 1010.25 1010.42 1010.58 1010.74 1010.94 1011.18 1011.49 1011.87 1012.30 1012.77 1013.24 1013.68 1014.05 1014.32 1014.49 1014.54 1014.50 1014.40 1014.26 1014.11 1014.00 1013.93 1013.91 1013.95
1006.01 1006.30 1006.59 1006.87 1007.13 1007.39 1007.65 1007.91 1008.18 1008.46 1008.73 1009.00 1009.24 1009.46 1009.66 1009.83 1010.00 1010.17 1010.39 1010.66 1011.00 1011.42 1011.89 1012.41 1012.94 1013.43 1013.86 1014.20 1014.42 1014.54 1014.56 1014.50 1014.41 1014.31 1014.22 1014.18 1014.19 1014.26
1005.60 1005.89 1006.19 1006.47 1006.74 1007.00 1007.25 1007.50 1007.75 1008.00 1008.25 1008.49 1008.72 1008.92 1009.10 1009.26 1009.42 1009.60 1009.82 1010.10 1010.46 1010.89 1011.40 1011.96 1012.53 1013.08 1013.57 1013.99 1014.30 1014.50 1014.61 1014.64 1014.63 1014.60 1014.58 1014.59 1014.65 1014.75
1005.27 1005.57 1005.87 1006.16 1006.43 1006.69 1006.94 1007.19 1007.43 1007.67 1007.90 1008.13 1008.33 1008.51 1008.66 1008.80 1008.94 1009.11 1009.31 1009.58 1009.93 1010.37 1010.88 1011.45 1012.05 1012.64 1013.20 1013.68 1014.08 1014.39 1014.60 1014.75 1014.84 1014.91 1014.98 1015.07 1015.19 1015.33
1005.03 1005.33 1005.63 1005.93 1006.21 1006.48 1006.73 1006.98 1007.23 1007.46 1007.69 1007.91 1008.09 1008.25 1008.39 1008.51 1008.62 1008.75 1008.93 1009.16 1009.48 1009.88 1010.37 1010.92 1011.52 1012.13 1012.72 1013.27 1013.75 1014.15 1014.48 1014.75 1014.96 1015.15 1015.32 1015.49 1015.68 1015.87
1004.89 1005.18 1005.47 1005.76 1006.05 1006.32 1006.58 1006.84 1007.10 1007.35 1007.58 1007.80 1007.98 1008.14 1008.26 1008.35 1008.44 1008.53 1008.66 1008.84 1009.10 1009.44 1009.87 1010.38 1010.94 1011.54 1012.15 1012.73 1013.28 1013.77 1014.20 1014.58 1014.91 1015.21 1015.48 1015.75 1016.00 1016.25
1004.84 1005.10 1005.37 1005.64 1005.92 1006.18 1006.45 1006.72 1006.99 1007.24 1007.49 1007.72 1007.91 1008.06 1008.18 1008.26 1008.32 1008.38 1008.45 1008.57 1008.76 1009.03 1009.38 1009.82 1010.33 1010.89 1011.48 1012.07 1012.66 1013.21 1013.72 1014.20 1014.63 1015.03 1015.41 1015.75 1016.07 1016.37
1004.86 1005.08 1005.31 1005.54 1005.78 1006.03 1006.28 1006.54 1006.81 1007.07 1007.33 1007.57 1007.77 1007.94 1008.06 1008.13 1008.18 1008.21 1008.24 1008.30 1008.42 1008.61 1008.88 1009.24 1009.68 1010.18 1010.73 1011.32 1011.91 1012.50 1013.07 1013.62 1014.14 1014.62 1015.07 1015.49 1015.87 1016.21
1004.92 1005.08 1005.24 1005.42 1005.61 1005.80 1006.02 1006.25 1006.50 1006.76 1007.01 1007.26 1007.48 1007.65 1007.79 1007.87 1007.92 1007.94 1007.94 1007.97 1008.03 1008.16 1008.35 1008.63 1009.00 1009.44 1009.95 1010.50 1011.09 1011.69 1012.30 1012.89 1013.46 1014.00 1014.51 1014.98 1015.41 1015.80
1004.98 1005.06 1005.15 1005.25 1005.36 1005.48 1005.63 1005.81 1006.02 1006.25 1006.49 1006.73 1006.95 1007.15 1007.30 1007.41 1007.48 1007.51 1007.52 1007.53 1007.57 1007.65 1007.80 1008.02 1008.33 1008.71 1009.17 1009.70 1010.26 1010.86 1011.48 1012.09 1012.69 1013.27 1013.81 1014.32 1014.78 1015.20
1004.99 1004.99 1004.99 1005.00 1005.02 1005.05 1005.12 1005.22 1005.37 1005.55 1005.76 1005.98 1006.21 1006.42 1006.60 1006.75 1006.85 1006.91 1006.95 1006.98 1007.03 1007.11 1007.24 1007.43 1007.71 1008.05 1008.48 1008.97 1009.51 1010.10 1010.70 1011.32 1011.93 1012.52 1013.09 1013.61 1014.10 1014.54
1004.90 1004.83 1004.75 1004.66 1004.58 1004.52 1004.50 1004.52 1004.59 1004.71 1004.88 1005.08 1005.30 1005.53 1005.74 1005.93 1006.08 1006.20 1006.29 1006.37 1006.46 1006.56 1006.71 1006.91 1007.17 1007.50 1007.91 1008.37 1008.90 1009.46 1010.05 1010.66 1011.26 1011.85 1012.42 1012.95 1013.44 1013.90
1004.70 1004.56 1004.41 1004.24 1004.07 1003.92 1003.81 1003.74 1003.74 1003.80 1003.92 1004.10 1004.32 1004.55 1004.80 1005.03 1005.25 1005.43 1005.60 1005.75 1005.89 1006.05 1006.24 1006.47 1006.74 1007.08 1007.48 1007.94 1008.44 1008.99 1009.56 1010.15 1010.73 1011.31 1011.86 1012.39 1012.88 1013.34
1004.38 1004.19 1003.98 1003.74 1003.51 1003.29 1003.10 1002.97 1002.90 1002.91 1002.99 1003.14 1003.35 1003.60 1003.88 1004.16 1004.43 1004.69 1004.93 1005.16 1005.38 1005.61 1005.85 1006.13 1006.44 1006.79 1007.20 1007.65 1008.15 1008.67 1009.23 1009.79 1010.35 1010.90 1011.43 1011.94 1012.42 1012.88
1003.96 1003.74 1003.49 1003.22 1002.94 1002.67 1002.44 1002.26 1002.15 1002.12 1002.17 1002.30 1002.51 1002.77 1003.06 1003.39 1003.71 1004.04 1004.35 1004.66 1004.95 1005.25 1005.55 1005.87 1006.22 1006.60 1007.02 1007.48 1007.96 1008.47 1009.00 1009.53 1010.07 1010.59 1011.10 1011.58 1012.05 1012.49
Thickness
5647 5650 5653 5658 5661 5667 5670 5674 5674 5675 5681 5690 5697 5705 5709 5712 5714 5715 5717 5718 5719 5719 5719 5720 5719 5720 5720 5721 5720 5719 5717 5716 5715 5715 5715 5714 5714 5713
5637 5639 5643 5647 5651 5656 5661 5666 5670 5672 5674 5683 5690 5696 5701 5704 5706 5708 5709 5711 5712 5713 5714 5715 5715 5716 5717 5717 5717 5716 5715 5714 5713 5713 5713 5713 5712 5712
5625 5628 5632 5636 5640 5645 5650 5655 5660 5664 5667 5674 5681 5687 5690 5694 5695 5698 5700 5702 5704 5706 5708 5709 5710 5711 5712 5712 5712 5712 5711 5711 5710 5710 5710 5710 5710 5710
5613 5616 5620 5625 5629 5634 5639 5643 5649 5655 5659 5663 5669 5675 5680 5684 5686 5689 5691 5693 5695 5698 5700 5702 5704 5705 5706 5706 5707 5707 5707 5708 5708 5707 5707 5707 5707 5708
5602 5605 5608 5612 5617 5622 5627 5632 5638 5645 5650 5654 5658 5664 5669 5674 5676 5678 5681 5683 5686 5688 5691 5693 5696 5698 5699 5700 5701 5702 5703 5704 5704 5703 5703 5703 5704 5704
5589 5593 5597 5601 5605 5610 5616 5621 5627 5632 5638 5643 5648 5653 5658 5663 5666 5667 5669 5673 5677 5680 5682 5684 5687 5690 5692 5693 5695 5696 5698 5699 5699 5699 5700 5700 5700 5701
5577 5580 5585 5590 5595 5600 5606 5610 5615 5619 5625 5630 5636 5642 5648 5653 5656 5660 5662 5663 5666 5670 5673 5675 5678 5681 5683 5685 5688 5690 5691 5693 5694 5694 5695 5696 5696 5696
5564 5568 5573 5579 5584 5589 5596 5601 5605 5609 5613 5618 5625 5631 5638 5644 5648 5652 5653 5655 5657 5661 5664 5665 5669 5672 5675 5677 5680 5682 5684 5686 5688 5689 5690 5691 5691 5691
5551 5556 5562 5569 5573 5577 5583 5589 5595 5600 5606 5610 5615 5621 5628 5636 5640 5643 5647 5650 5653 5656 5657 5657 5659 5663 5666 5669 5672 5675 5677 5679 5681 5683 5684 5685 5685 5685
5541 5545 5550 5557 5562 5566 5570 5575 5581 5588 5595 5602 5608 5614 5620 5626 5632 5636 5639 5640 5643 5646 5651 5650 5651 5653 5656 5659 5663 5666 5668 5670 5673 5675 5676 5677 5678 5678
5533 5537 5542 5547 5553 5557 5560 5565 5570 5576 5583 5590 5596 5603 5610 5616 5621 5625 5628 5631 5634 5638 5644 5646 5645 5645 5646 5650 5653 5656 5659 5662 5664 5666 5668 5669 5669 5669
5525 5529 5535 5540 5545 5548 5551 5555 5559 5565 5572 5578 5584 5591 5598 5605 5612 5618 5623 5626 5629 5632 5637 5639 5639 5639 5638 5640 5644 5647 5650 5652 5655 5657 5659 5660 5661 5661
5519 5523 5528 5533 5537 5541 5545 5549 5554 5558 5562 5568 5574 5580 5586 5594 5601 5608 5615 5621 5624 5628 5634 5635 5634 5634 5635 5634 5635 5638 5641 5643 5646 5647 5649 5651 5652 5653
5516 5519 5523 5528 5531 5534 5537 5542 5547 5550 5553 5558 5563 5569 5576 5584 5591 5599 5606 5613 5619 5624 5628 5631 5632 5632 5631 5630 5630 5631 5633 5635 5638 5639 5641 5642 5642 5643
5513 5516 5519 5523 5526 5528 5532 5536 5539 5542 5546 5549 5555 5561 5569 5576 5583 5589 5596 5602 5609 5615 5621 5625 5629 5629 5629 5629 5628 5628 5628 5628 5631 5633 5633 5634 5635 5635
5508 5512 5515 5518 5521 5524 5526 5529 5532 5537 5541 5545 5549 5555 5561 5567 5573 5580 5586 5593 5598 5604 5611 5618 5623 5624 5624 5625 5627 5626 5626 5626 5626 5627 5627 5627 5628 5629
5505 5506 5508 5510 5513 5517 5520 5523 5526 5530 5534 5539 5543 5548 5554 5560 5566 5573 5579 5586 5591 5597 5603 5608 5613 5617 5620 5622 5620 5621 5621 5621 5623 5622 5621 5620 5622 5623
5502 5504 5506 5508 5511 5514 5516 5519 5522 5526 5531 5535 5539 5543 5549 5554 5560 5566 5573 5579 5586 5592 5597 5602 5605 5606 5608 5611 5618 5618 5617 5617 5617 5617 5617 5615 5616 5617
5502 5504 5506 5508 5511 5513 5515 5518 5522 5526 5529 5533 5537 5541 5545 5550 5555 5561 5567 5573 5580 5586 5592 5597 5601 5605 5605 5607 5609 5615 5615 5613 5612 5611 5612 5612 5613 5614
5502 5504 5506 5508 5510 5513 5516 5519 5522 5524 5528 5531 5535 5539 5543 5547 5551 5557 5563 5569 5575 5580 5585 5591 5597 5602 5606 5607 5606 5607 5611 5611 5610 5608 5607 5606 5607 5608
5504 5506 5508 5510 5512 5514 5517 5520 5522 5525 5528 5530 5534 5538 5542 5545 5550 5555 5560 5565 5570 5575 5581 5588 5593 5596 5598 5599 5599 5600 5603 5606 5608 5607 5604 5600 5599 5599
5508 5509 5511 5512 5515 5517 5519 5521 5523 5525 5528 5531 5534 5537 5541 5545 5549 5553 5557 5563 5568 5573 5578 5582 5585 5588 5592 5595 5596 5596 5596 5597 5599 5601 5601 5602 5600 5597
5512 5513 5515 5516 5518 5520 5522 5524 5525 5528 5530 5533 5536 5538 5541 5544 5548 5552 5556 5561 5566 5570 5574 5577 5580 5583 5587 5591 5591 5591 5591 5592 5592 5592 5592 5595 5598 5600